Regional Weather Roundup
Issued by NWS Upton, NY

Current Version | Previous Version | Text Only | Print | Product List | Glossary Off
Versions: 1 2 3 4 5 6 7 8 9 10 11 12 13 14 15 16 17 18 19 20 21 22 23 24 25 26 27 28 29 30 31 32 33 34 35 36 37 38 39 40 41 42 43 44 45 46 47 48 49 50
000 ASUS41 KOKX 181705 RWROKX Regional Weather Roundup National Weather Service New York NY 1200 PM EST SUN FEB 18 2018 Note: "FAIR" indicates few or no clouds below 12,000 feet with no significant weather and/or obstructions to visibility. NYZ071-072-176-178-NJZ106-104-181800- New York City Metro Area CITY SKY/WX TMP DP RH WIND PRES REMARKS Central Park FAIR 42 23 46 VRB5 30.34R Bronx Bot Gard N/A 43 23 45 N9 30.33R Bronx Lehman C N/A 41 21 45 NW9 N/A LaGuardia Arpt FAIR 43 22 43 NW13 30.32R Queens College N/A 41 23 48 NW7 N/A Kennedy Intl FAIR 40 24 53 NW12 30.34R WCI 33 Breezy Point N/A 41 N/A N/A NW10G17 N/A Brooklyn Coll N/A 41 23 48 W10 N/A Staten Island N/A 41 25 52 NW10 N/A Newark/Liberty FAIR 41 24 51 W14G23 30.32R Teterboro FAIR 42 22 44 NW9 30.31R $$ NYZ177-179-078>081-181800- Long Island New York CITY SKY/WX TMP DP RH WIND PRES REMARKS Jones Beach N/A 39 N/A N/A NW14G20 N/A WCI 31 Wantagh N/A 41 23 48 W9 N/A Hempstead N/A 41 27 56 NW5 30.35R Matinecock Pt N/A 39 N/A N/A W10 N/A WCI 32 Farmingdale FAIR 40 23 50 W9 30.32R WCI 34 MacArthur/ISP FAIR 41 25 53 W14 30.30R Shirley FAIR 43 26 51 NW16 30.30R Mt Sinai Harb N/A N/A N/A N/A NW7 N/A Westhampton FAIR 42 22 44 NW15G23 30.30R East Hampton FAIR 40 23 49 NW14G20 30.27R WCI 33 Southold N/A 39 28 65 NW9 N/A WCI 33 Montauk N/A 42 25 50 NW14G20 30.26R $$ NYZ052-065-067-181800- Hudson Valley CITY SKY/WX TMP DP RH WIND PRES REMARKS White Plains FAIR 39 21 48 W10 30.28R WCI 32 Larchmont Harb N/A 39 N/A N/A W12G18 N/A WCI 32 Croton On Huds N/A 43 N/A N/A NW5 N/A Somers N/A 39 21 48 NW7 N/A WCI 34 Brewster N/A 39 21 48 N9 N/A WCI 33 Newburgh SUNNY 39 23 52 N14 30.28R WCI 31 Montgomery FAIR 40 21 46 NW16G25 30.27R WCI 31 Otisville N/A 37 23 56 NW10G24 N/A WCI 30 Warwick N/A 37 23 56 NW12 N/A WCI 30 Suffern N/A 39 23 52 NW9 N/A WCI 33 Poughkeepsie FAIR 41 19 41 N3 30.28R Albany CLOUDY 36 25 64 NW17 30.27R WCI 26 $$ NJZ001-105-106-008-010-013-015-019>022-104-181800- New Jersey CITY SKY/WX TMP DP RH WIND PRES REMARKS Newark/Liberty FAIR 41 24 51 W14G23 30.32R Teterboro FAIR 42 22 44 NW9 30.31R Caldwell FAIR 41 22 46 W8 30.33R Somerville FAIR 42 26 53 NW9 30.32R Linden FAIR 41 24 51 NW7 30.34R Perth Amboy N/A 39 N/A N/A W14 N/A WCI 31 Sussex FAIR 39 23 52 N15G24 30.30R WCI 31 Andover N/A 40 22 48 N8 30.31R WCI 34 Trenton FAIR 41 26 55 NW10 30.35R Millville FAIR 42 28 57 NW15G21 30.38S Atlantic City FAIR 45 29 53 NW13 30.36S Wrightstown FAIR 41 27 57 NW12 30.33 Toms River FAIR 42 29 59 W15G21 30.36R Belmar FAIR 41 26 55 NW14G20 30.35R $$ PAZ047>061-062-071-181800- Eastern Pennsylvania CITY SKY/WX TMP DP RH WIND PRES REMARKS Philadelphia FAIR 42 25 50 NW13 30.38S Allentown FAIR 40 22 48 NW12 30.35R WCI 33 Scranton CLOUDY 35 23 61 N14 30.33R WCI 26 $$ CTZ002-004>006-009-010-012-RIZ004-006-007-MAZ004-011-015-181800- Southern New England In CT CITY SKY/WX TMP DP RH WIND PRES REMARKS Bradley Intl FAIR 40 22 48 NW12G20 30.23R WCI 33 Hartford FAIR 41 22 46 N9 30.25R Danbury FAIR 39 21 48 NW9 30.29R WCI 33 Wtrbury/Oxford FAIR 38 22 52 NW14G21 30.25R WCI 30 Norwalk Harbor N/A 37 N/A N/A NW12 N/A WCI 30 Bridgeport FAIR 41 22 46 NW13G23 30.28R Meriden FAIR 41 22 46 W14G20 30.27R New Haven FAIR 42 23 46 NW8 30.26R Chester FAIR 41 21 45 NW15G22 30.24R Groton FAIR 41 23 48 NW14G22 30.23R Willimantic FAIR 40 22 48 NW14G23 30.23R WCI 32 In RI CITY SKY/WX TMP DP RH WIND PRES REMARKS Providence FAIR 40 24 53 N15G24 30.20R WCI 32 Block Island FAIR 41 27 57 NW13 30.24R Westerly FAIR 42 26 53 NW10 30.23R In MA CITY SKY/WX TMP DP RH WIND PRES REMARKS Boston FAIR 39 25 57 NW13G23 30.18F WCI 31 Worcester FAIR 36 21 54 N15G28 30.12F WCI 27 Westfield FAIR 39 21 48 NW10G31 30.21R WCI 32 Provincetown FAIR 39 29 67 N21G29 30.17R WCI 29 Nantucket FAIR 41 30 65 N22G33 30.14S $$ ANZ330-335-338-340-345-350-353-355-181800- Coastal Marine Observations STATION/POSITION TIME SKY/WX TEMP WIND PRES VSBY WAVE AIR SEA DIR/SP/G HT/PER (UTC) (F) (DEG/KT/KT) (MB) (MI) (FT/S) NY Harb Entrance 1650 39 39 300/ 12/ 14 1026.8 3/ 8 20 S Fire Island 1550 38 42 320/ 17/ 19 1025.6 5/ 5 15 E Barnegat Li 1630 40 N/A 3/ 8 Hudson Canyon 1650 40 47 330/ 21/ 25 1025.9 7/ 7 Kings Point 1630 38 36 20/ 8/ 11 1027.3 Execution Rocks NOT AVBL Western LI Sound NOT AVBL Central LI Sound 1645 38 330/ 8/ 12 N/A 2 Robbins Reef 1624 40 300/ 14/ 16 1027.3 $$ >>>>>>>>>>>>>>>>>>>>>>>>>>>> KEY <<<<<<<<<<<<<<<<<<<<<<<<<<< > < > SKY/WX - Sky Condition/Present Weather < > TMP - Temperature in Fahrenheit < > DP - Dew Point in Fahrenheit < > RH - Relative Humidity in Percent < > WIND - Direction (from) and Speed in MPH < > PRES - Mean Sea Level Pressure (inches of Hg) < > WCI - Wind Chill Index < > VSB - Visibility in Miles < > HX - Heat Index < > TC - Temperature in Celsius < > VRB - Varibale Wind Direction < > < >>>>>>>>>>>>>>>>>>>>>>>>>>>> KEY <<<<<<<<<<<<<<<<<<<<<<<<<<<

USA.gov is the U.S. government's official web portal to all federal, state and local government web resources and services.